Regional Weather Roundup
Issued by NWS

Home | Current Version | Previous Version | Graphics & Text | Print | Product List | Glossary On
Versions: 1 2 3 4 5 6 7 8 9 10 11 12 13 14 15 16 17 18 19 20 21 22 23 24 25 26 27 28 29 30 31 32 33 34 35 36 37 38 39 40 41 42 43 44 45 46 47 48 49 50
000
ASUS43 KLMK 280802
RWRKY
KENTUCKY REGIONAL WEATHER ROUNDUP
NATIONAL WEATHER SERVICE LOUISVILLE KY
400 AM EDT SAT MAY 28 2016

NOTE "FAIR" INDICATES FEW OR NO CLOUDS BELOW 12,000 FEET
WITH NO SIGNIFICANT WEATHER AND/OR OBSTRUCTIONS TO VISIBILITY.

KYZ001>023-026-027-061>063-070>075-280900-
WESTERN AND SOUTH CENTRAL KENTUCKY

CITY           SKY/WX    TMP DP  RH WIND       PRES   REMARKS
PADUCAH        CLOUDY    72  63  73 S5        29.92R
HENDERSON      CLOUDY    73  63  68 SE8       29.93F
OWENSBORO      MOCLDY    72  68  87 SE8       29.97S
HOPKINSVILLE   NOT AVBL
BOWLING GREEN  CLOUDY    71  67  87 SE5       30.00S
GLASGOW        NOT AVBL
$$

KYZ024-025-028>034-038-045-046-053-280900-
NORTH CENTRAL KENTUCKY

CITY           SKY/WX    TMP DP  RH WIND       PRES   REMARKS
LOUISVILLE/SDF LGT RAIN  71  65  81 SE5       30.00R
LOUISVILLE/LOU CLOUDY    71  65  81 S7        30.00S
FORT KNOX      LGT RAIN  69  65  89 SE5       29.99R
$$

KYZ035>037-039>044-047>052-055>060-089>105-280900-
NORTHEAST KENTUCKY

CITY           SKY/WX    TMP DP  RH WIND       PRES   REMARKS
LEXINGTON      CLEAR     68  64  87 S7        30.05S
COVINGTON      CLOUDY    71  65  81 S8        30.02R
FRANKFORT      CLEAR     69  64  84 SE5       30.02S
$$

KYZ054-064>069-076>088-106>120-280900-
SOUTHEAST KENTUCKY

CITY           SKY/WX    TMP DP  RH WIND       PRES   REMARKS
JACKSON        CLEAR     66  63  90 VRB3      30.09S
LONDON         CLEAR     64  61  90 CALM      30.08S
SOMERSET       NOT AVBL
MIDDLESBORO    CLOUDY    61  61 100 CALM      30.12S FOG
MONTICELLO     MOSUNNY   65  64  97 CALM      30.08R
$$





USA.gov is the U.S. government's official web portal to all federal, state and local government web resources and services.